Powrót do katalogu

COSMOS 1082

AktywnyNawigacjaLEO
NORAD 11297·PAYLOAD·🇷🇺 Russia

Wystrzelony Mar 15, 1979 z Plesetsk Cosmodrome

Loading…

Następne Przeloty (najbliższe 24 godziny)

TLE

ŚwieżeSource: Space-Track

Epoka: Sep 14, 2026, 07:25 UTC

1 11297U 79024B   26257.30947444 -.00000011  00000-0  31774-4 0  9998
2 11297  74.0382   7.1532 0026370  57.0770 332.5302 12.54965730775951

Śledź COSMOS 1082 w czasie rzeczywistym z AllMySat

Download on the App Store